パンスターズ彗星

C/2017 X1 ( PanSTARRS )

English version
Home page
Updated on September 15, 2022

---------------------------------------------------------------------

・ プロフィール

発見日 2017年12月12日
発見光度 20.2等
発見者 Pan-STARRS 1 telescope (Haleakala)

・ 軌道要素

Epoch 2018 June 11.0 TT = JDT 2458280.5                                         
T 2018 June 14.53788 TT                                 Rudenko                 
q   4.6625811            (2000.0)            P               Q                  
n   0.00562265     Peri.  283.11813     -0.86074567     -0.13154729             
a  31.3214445      Node   251.12716     +0.25122436     -0.94996499             
e   0.8511377      Incl.   31.31098     -0.44272251     -0.28330519             
P 175                                                                           
From 97 observations 2017 Feb. 12-2019 July 25, mean residual 0".3.             

・ 光度変化

        m1 = -1.0 + 5 logΔ + 25 log r(t + 15)

---------------------------------------------------------------------

軌道要素はM.P.E.C. 2020-P19に掲載されたものです。
光度グラフはComet for Windowsで作成したものです。

---------------------------------------------------------------------

Copyright(C) Seiichi Yoshida (comet@aerith.net). All rights reserved.